Location: Byszew
(52.1813°N, 19.2693°E)
Time: 09:40:08
(UTC+00:00)

DIWATA 2B (PO-101) - Visible Passes

Search period start: 27 June 2022 00:00
Search period end: 07 July 2022 00:00
Orbit: 585 x 597 km, 98.0° (Epoch: 26 June)

Date Brightness Start Highest point End Pass type
(mag) Time Alt. Az. Time Alt. Az. Time Alt. Az.
27 Jun ? 01:05:39 10° SSW 01:09:30 35° W 01:13:25 10° NNW visible
27 Jun ? 23:38:30 10° SE 23:42:20 35° ENE 23:46:12 10° N visible
28 Jun ? 01:14:11 10° SSW 01:17:54 30° W 01:21:38 10° NNW visible
28 Jun ? 23:46:40 10° SE 23:50:38 42° ENE 23:54:37 10° N visible
29 Jun ? 01:22:47 10° SSW 01:26:18 25° W 01:29:50 10° NW visible
29 Jun ? 23:54:52 10° SE 23:58:56 49° ENE 00:03:01 10° N visible
30 Jun ? 01:31:28 10° SW 01:34:43 21° W 01:38:00 10° NW visible
30 Jun ? 22:32:11 10° ENE 22:32:35 10° NE 22:33:00 10° NE visible
01 Jul ? 00:03:07 10° SSE 00:07:15 59° ENE 00:11:25 10° N visible
01 Jul ? 22:39:17 10° ENE 22:40:48 12° NE 22:42:20 10° NNE visible
02 Jul ? 00:11:24 10° SSE 00:15:34 71° ENE 00:19:47 10° N visible
02 Jul ? 22:46:56 10° E 22:49:03 14° NE 22:51:08 10° NNE visible
03 Jul ? 00:19:48 11° SSE 00:23:54 84° ENE 00:28:09 10° NNW visible
03 Jul ? 22:54:45 10° E 22:57:16 16° ENE 22:59:48 10° NNE visible
04 Jul ? 00:28:16 11° SSE 00:32:15 82° WSW 00:36:30 10° NNW visible
04 Jul ? 23:02:39 10° E 23:05:31 18° ENE 23:08:23 10° NNE visible
05 Jul ? 00:36:43 12° S 00:40:35 68° WSW 00:44:49 10° NNW visible
05 Jul ? 23:10:37 10° ESE 23:13:46 21° ENE 23:16:55 10° NNE visible
06 Jul ? 00:45:11 12° S 00:48:57 57° W 00:53:07 10° NNW visible
06 Jul ? 23:18:39 10° ESE 23:22:02 24° ENE 23:25:25 10° N visible
